Weather Roundup
Issued by NWS

Home | Current Version | Previous Version | Graphics & Text | Print | Product List | Glossary Off
Versions: 1 2 3 4 5 6 7 8 9 10 11 12 13 14 15 16 17 18 19 20 21 22 23 24 25 26 27 28 29 30 31 32 33 34 35 36 37 38 39 40 41 42 43 44 45 46 47 48 49 50

000
NZUS93 KARX 261610
HRRWXR

CURRENT HOURLY OBSERVATIONS ACROSS
MUCH OF THE UPPER MISSISSIPPI VALLEY
NATIONAL WEATHER SERVICE LA CROSSE WI
1100 AM CDT TUE AUG 26 2014


...SOUTHEAST MINNESOTA...


CITY           SKY/WX    TMP DP  RH WIND       PRES   REMARKS
ROCHESTER      PTSUNNY   63  54  72 N15       30.16F
ROCHESTER/MAYO FAIR      62  50  65 NW7       30.17F
WINONA         PTSUNNY   63  52  67 N10       30.15F
AUSTIN         PTSUNNY   63  54  72 N12G20    30.15S
ALBERT LEA     PTSUNNY   63  54  72 N9        30.17S
DODGE CENTER   PTSUNNY   61  54  77 N9        30.17F
PRESTON        PTSUNNY   62  58  86 N3        30.12F
OWATONNA       PTSUNNY   63  52  67 N7        30.18F
FARIBAULT      PTSUNNY   64  46  52 N9        30.19F
$$

...ELSEWHERE IN MINNESOTA...


CITY           SKY/WX    TMP DP  RH WIND       PRES   REMARKS
MINNEAPOLIS    NOT AVBL
INTNL FALLS    CLOUDY    55  46  71 W12       30.16R
DULUTH         MOSUNNY   60  47  61 NW13      30.15F
RED WING       CLOUDY    63  48  59 N5        30.18F
REDWOOD FALLS  SUNNY     64  48  56 VRB3      30.22F
MANKATO        MOSUNNY   61  48  63 N12       30.19F
WORTHINGTON    MOSUNNY   59  50  72 NE10      30.20F
FAIRMONT       MOSUNNY   54  48  82 N13       30.17F
$$

...SOUTHWEST WISCONSIN...


CITY           SKY/WX    TMP DP  RH WIND       PRES   REMARKS
LA CROSSE      CLOUDY    65  52  62 N16       30.11F
PRAIRIE DU CHI PTSUNNY   68  59  71 E6        30.12R
BOSCOBEL       CLOUDY    71  57  61 E12G17    30.10F
LONE ROCK      CLOUDY    71  57  61 CALM      30.13S
PLATTEVILLE    CLOUDY    68  59  73 NE12G17   30.12F
FORT MC COY    CLOUDY    64  51  61 N10       30.14F
CAMP DOUGLAS   PTSUNNY   66  55  68 N13       30.14F
VIROQUA        FAIR      63  55  73 N14G25    30.08F
WIS DELLS      CLOUDY    66  53  62 N3        30.13F
$$

...ELSEWHERE IN WISCONSIN...


CITY           SKY/WX    TMP DP  RH WIND       PRES   REMARKS
MILWAUKEE      CLOUDY    71  62  73 NW8       30.15R
MADISON        CLOUDY    67  57  70 NE10      30.11F
GREEN BAY      PTSUNNY   68  57  68 W9        30.11F
EAU CLAIRE     PTSUNNY   63  50  62 NW10      30.18F
BLACK RVR FLS  FAIR      64  50  61 NW6       30.16F
MEDFORD        CLOUDY    58  51  77 W8        30.17S
WAUSAU         PTSUNNY   62  51  67 NW9       30.14F
WIS RAPIDS     CLOUDY    64  53  67 W9        30.17S
MARSHFIELD     PTSUNNY   63  53  70 NW10      30.15F
RICE LAKE      PTSUNNY   59  48  66 W6        30.21S
$$

...NORTHEAST IOWA...


CITY           SKY/WX    TMP DP  RH WIND       PRES   REMARKS
WATERLOO       PTSUNNY   71  58  63 N6        30.15R
DUBUQUE        PTSUNNY   68  65  90 NE15      30.12F
DECORAH        CLOUDY    64  57  77 N8G21     30.10R
MASON CITY     PTSUNNY   67  55  65 N17       30.16R
CHARLES CITY   PTSUNNY   64  55  72 CALM      30.16R
OELWEIN        CLOUDY    68  61  77 VRB6      30.16R
$$

...ELSEWHERE IN IOWA...


CITY           SKY/WX    TMP DP  RH WIND       PRES   REMARKS
DES MOINES     PTSUNNY   74  63  68 E8        30.14F
IOWA CITY      MOSUNNY   75  63  66 NE8       30.13R
FORT DODGE     PTSUNNY   64  57  77 CALM      30.20R
MARSHALLTOWN   MOSUNNY   69  61  75 N8        30.16R
CEDAR RAPIDS   MOSUNNY   73  63  70 NE8       30.12R
$$

...NORTHERN ILLINOIS...


CITY           SKY/WX    TMP DP  RH WIND       PRES   REMARKS
CHICAGO-OHARE  TSTM      72  64  76 N15G36    30.14R
DUPAGE         LGT RAIN  72  67  84 N15G29    30.10F
CHICAGO-MIDWAY PTSUNNY   80  73  79 NW5       30.09S
MOLINE         PTSUNNY   75  66  73 NE9       30.11S
ROCKFORD       CLOUDY    68  63  84 NE8       30.14S
STERLING       CLOUDY    70  66  88 NE8       30.11F
PEORIA         CLOUDY    82  74  76 NW9       30.11R
$$

NOTE: "FAIR" INDICATES FEW OR NO CLOUDS BELOW 12,000 FEET WITH NO
SIGNIFICANT WEATHER AND/OR OBSTRUCTIONS TO VISIBILITY. WIND
SPEEDS ARE IN MILES-PER-HOUR.



USA.gov is the U.S. government's official web portal to all federal, state and local government web resources and services.